Probability
0 0 0 0 0 0 0 0 0 0 0 0 0 0 0 0 0 0 0 0 0 0 1 2 4 6 6 6 4 4 12 27 44 53 51 39 24 14 9 6 2 1 0 0
0 0 0 0 0 0 0 0 0 0 0 0 0 0 0 0 0 0 0 0 0 1 2 6 13 18 17 14 11 9 16 34 56 69 68 60 48 37 26 16 8 3 0 1
0 0 0 0 0 0 0 0 0 0 0 0 0 0 0 0 0 0 0 0 0 1 4 13 27 38 38 32 24 20 25 45 69 84 86 82 77 69 55 39 23 9 2 2
0 0 0 0 0 0 0 0 0 0 0 0 0 0 0 0 0 0 0 0 0 0 2 12 29 46 52 48 42 38 44 61 78 87 87 84 80 76 69 58 38 16 5 3
0 0 0 0 0 0 0 0 0 0 0 0 0 0 0 0 0 0 0 0 0 0 1 6 18 34 47 54 56 58 65 76 83 83 76 66 60 58 60 56 42 23 10 5
0 0 0 0 0 0 0 0 0 0 0 0 0 0 0 0 0 0 0 0 0 0 0 2 8 18 29 42 55 65 72 75 75 68 57 45 38 40 45 44 35 23 12 7
0 0 0 0 0 0 0 0 0 0 0 0 0 0 0 0 0 0 0 0 0 0 1 2 4 8 13 22 36 48 54 54 50 44 36 26 24 28 32 31 25 17 11 8
0 0 0 0 0 0 0 0 0 0 0 0 0 0 0 0 0 0 0 0 0 0 1 2 2 3 4 8 16 24 28 28 25 22 19 17 18 21 23 21 15 10 7 6
0 0 0 0 0 0 0 0 0 0 0 0 0 0 0 0 0 0 0 0 0 0 0 1 1 1 1 3 5 8 10 11 11 9 9 12 12 13 14 12 7 5 3 2
0 0 0 0 0 0 0 0 0 0 0 0 0 0 0 0 0 0 0 0 0 0 0 0 0 0 1 1 1 1 2 3 4 5 5 6 6 5 6 4 2 1 1 0
0 0 0 0 0 0 0 0 0 0 0 0 0 0 0 0 0 0 0 0 0 0 0 0 0 0 0 0 0 0 0 0 1 3 2 2 1 1 1 0 0 0 0 0
0 0 0 0 0 0 0 0 0 0 0 0 0 0 0 0 0 0 0 0 0 0 0 0 0 0 0 0 0 0 0 0 0 1 1 0 0 0 0 0 0 0 0 0
0 0 0 0 0 0 0 0 0 0 0 0 0 0 0 0 0 0 0 0 0 0 0 0 0 0 0 0 0 0 0 0 0 0 0 0 0 0 0 0 1 1 0 0
0 0 0 0 0 0 0 0 0 0 0 0 0 0 0 0 0 0 0 0 0 0 0 0 0 0 0 0 0 0 0 0 0 0 0 0 0 0 0 0 1 2 1 0
0 0 0 0 0 0 0 0 0 0 0 0 0 0 0 0 0 0 0 0 0 0 0 0 0 0 0 0 0 0 0 0 0 0 0 0 0 0 0 0 1 2 2 1
0 0 0 0 0 0 0 0 0 0 0 0 0 0 0 0 0 0 0 0 0 0 0 0 0 0 0 0 0 0 0 0 0 0 0 0 0 0 0 0 1 2 3 3
0 0 0 0 0 0 0 0 0 0 0 0 0 0 0 0 0 0 0 0 0 0 0 0 0 0 0 0 0 0 0 0 0 0 0 0 0 0 0 0 0 1 2 2
0 0 0 0 0 0 0 0 0 0 0 0 0 0 0 0 0 0 0 0 0 0 0 0 0 0 0 0 0 0 0 0 0 0 0 0 0 0 0 0 0 0 1 1
0 0 0 0 0 0 0 0 0 0 0 0 0 0 0 0 0 0 0 0 0 0 0 0 0 0 0 0 0 0 0 0 0 0 0 0 0 0 0 0 0 0 0 0
0 0 0 0 0 0 0 0 0 0 0 0 0 0 0 0 0 0 0 0 0 0 0 0 0 0 0 0 0 0 0 0 0 0 0 0 0 0 0 0 0 0 0 0
0 0 0 0 0 0 0 0 0 0 0 0 0 0 0 0 0 0 0 0 0 0 0 0 0 0 0 0 0 0 0 0 0 0 0 0 0 0 0 0 0 0 0 0
0 0 0 0 0 0 0 0 0 0 0 0 0 0 0 0 0 0 0 0 0 0 0 0 0 0 0 0 0 0 0 0 0 0 0 0 0 0 0 0 0 0 0 0
0 0 0 0 0 0 0 0 0 0 0 0 0 0 0 0 0 0 0 0 0 0 0 0 0 0 0 0 0 0 0 0 0 0 0 0 0 0 0 0 0 0 0 0
0 0 0 0 0 0 0 0 0 0 0 0 0 0 0 0 0 0 0 0 0 0 0 0 0 0 0 0 0 0 0 0 0 0 0 0 0 0 0 0 0 0 0 0
0 0 0 0 0 0 0 0 0 0 0 0 0 0 0 0 0 0 0 0 0 0 0 0 0 0 0 0 0 0 0 0 0 0 0 0 0 0 0 0 0 0 0 0
0 0 0 0 0 0 0 0 0 0 0 0 0 0 0 0 0 0 0 0 0 0 0 0 0 0 0 0 0 0 0 0 0 0 0 0 0 0 0 0 0 0 0 0
Wind_Speed
0 0 3 5 5 5 6 7 8 5 3 5 5 3 2 5 7 9 10 10 11 11 10 9 9 9 11 13 15 15 15 15 12 10 10 9 9 7 7 7 8 9 9 9
3 5 6 4 3 4 5 7 7 4 2 6 6 5 1 4 7 9 11 12 13 14 13 12 10 8 9 12 14 16 16 15 14 10 10 8 8 7 6 6 7 9 10 9
5 7 5 3 5 6 4 6 8 9 7 7 8 8 6 4 4 8 10 11 13 14 15 15 13 11 9 10 12 12 15 15 14 11 7 6 6 4 4 5 5 8 9 9
6 6 5 5 8 10 6 7 9 10 11 9 7 10 5 1 2 9 12 13 14 14 14 14 14 13 11 9 8 10 11 13 12 11 9 9 5 4 3 2 3 5 7 7
6 8 9 9 10 10 9 11 12 12 13 14 11 11 3 3 6 11 14 14 14 14 14 14 13 12 11 9 5 4 6 9 11 11 11 9 5 4 2 1 1 3 4 6
7 6 9 10 7 7 11 12 11 10 10 13 11 11 1 6 10 13 14 15 14 14 14 13 12 10 8 7 5 3 6 9 10 11 11 11 9 6 3 0 1 2 3 4
4 7 7 10 11 8 12 11 7 6 7 7 3 4 6 8 10 12 14 15 14 13 13 12 11 9 8 8 6 6 8 9 10 11 11 11 10 7 3 1 1 3 3 3
6 5 10 10 10 10 10 9 7 7 7 5 3 1 7 9 11 13 14 14 14 13 12 11 10 8 7 7 7 8 9 10 9 9 9 9 8 5 2 1 3 4 4 4
7 5 6 8 8 10 10 8 7 8 9 8 3 3 3 13 16 17 17 16 15 14 12 11 9 7 7 7 8 8 10 10 9 9 8 6 5 4 3 3 5 4 4 3
6 4 6 6 5 9 9 8 6 5 6 5 1 4 8 17 19 18 18 17 15 14 12 11 9 8 7 7 8 8 8 8 7 6 5 4 3 3 3 4 6 6 5 4
6 4 4 6 10 13 10 8 7 5 4 5 3 4 9 13 14 15 15 15 14 13 12 10 8 8 7 7 7 7 6 5 4 3 2 2 2 3 4 5 5 5 5 5
5 5 4 6 5 7 7 8 6 4 4 3 2 3 8 11 12 13 14 14 14 14 12 11 10 10 9 9 8 7 5 4 2 0 1 2 2 4 5 5 5 5 5 5
3 5 0 5 3 9 7 10 7 3 3 3 3 4 9 13 14 15 14 14 13 14 14 13 12 11 11 10 9 8 7 6 4 2 1 2 2 2 2 2 2 3 4 4
2 6 7 6 5 6 7 12 11 6 4 4 6 6 12 16 16 16 15 14 13 13 14 14 12 12 11 10 9 9 9 7 5 4 4 3 3 2 2 2 1 1 2 3
1 6 9 8 5 6 11 12 13 12 8 6 5 6 10 13 12 11 12 12 13 14 14 14 13 12 11 11 10 10 10 9 8 7 7 6 5 4 3 3 1 0 1 2
2 6 7 6 3 3 9 11 10 9 7 6 6 6 10 10 8 10 12 12 12 12 12 12 13 12 12 11 11 11 10 10 9 9 9 8 7 6 5 4 3 2 0 1
3 5 4 4 2 4 5 7 6 5 6 6 6 7 10 9 9 10 10 11 11 11 11 11 11 11 10 11 11 11 10 10 10 10 10 9 8 7 7 6 5 4 3 2
2 4 1 2 4 2 5 2 2 3 3 4 4 6 8 8 6 5 9 10 10 10 10 10 10 10 10 10 10 9 9 10 11 11 10 10 9 9 8 8 7 6 6 5
2 2 2 2 2 4 3 3 2 2 2 3 5 7 9 8 2 7 12 11 10 9 8 8 8 8 9 9 9 9 10 10 11 11 10 10 10 9 9 9 8 7 7 7
3 2 3 3 2 2 5 5 2 4 2 2 4 7 9 9 5 8 13 12 10 9 8 8 7 8 8 8 7 8 9 10 10 10 9 9 9 9 9 9 8 7 6 6
4 3 3 3 2 3 6 6 5 4 5 3 3 5 7 8 8 9 11 9 8 8 7 7 7 7 7 7 7 8 9 9 8 7 8 8 8 8 8 8 7 7 6 6
3 4 4 4 4 3 10 7 5 3 4 1 2 5 7 8 8 9 9 9 9 8 8 8 7 6 6 6 6 7 7 6 5 5 6 7 7 7 6 7 7 7 7 6
5 3 2 3 2 5 7 4 1 0 1 1 3 5 6 7 8 10 10 9 9 9 8 7 7 6 5 5 5 5 5 3 3 4 5 5 6 6 7 7 7 6 6 6
5 4 5 6 6 6 7 6 4 3 2 2 4 5 5 7 8 9 9 9 9 9 8 8 8 7 6 5 4 4 3 2 2 4 4 4 5 6 6 5 5 6 6 6
5 8 7 7 5 7 9 9 7 5 3 3 3 3 4 6 8 9 9 9 9 8 8 7 7 7 7 6 4 3 2 2 2 3 4 4 5 5 5 5 5 5 6 6
9 9 8 5 8 8 9 11 9 7 5 3 2 3 3 5 7 8 8 8 8 8 8 8 8 7 7 6 5 2 1 2 3 3 4 4 4 4 4 4 5 5 4 6
Wind_Direction
50 320 17 2 344 316 305 288 284 300 344 294 278 284 39 48 38 26 16 8 2 354 344 335 315 291 268 249 234 223 212 204 198 192 194 189 193 196 200 207 210 212 219 219
187 56 22 11 358 306 296 288 291 293 318 291 279 272 138 76 49 30 15 6 0 352 347 347 333 310 277 256 243 230 216 206 197 192 192 191 186 193 194 202 211 218 223 223
53 36 18 12 12 331 314 320 316 306 299 256 269 249 187 135 72 33 17 5 0 354 346 344 340 332 309 273 252 238 223 206 194 181 174 163 156 155 170 199 212 221 227 227
68 37 16 18 22 344 319 348 313 295 283 270 255 272 200 142 46 18 7 1 357 352 346 342 340 339 332 310 272 245 222 204 182 167 163 160 161 155 169 180 204 217 224 228
69 34 25 23 13 351 339 322 299 285 275 272 251 258 220 58 6 1 357 354 352 350 346 343 344 342 341 335 317 250 201 173 159 157 152 135 116 98 66 53 224 225 222 226
80 59 32 9 353 357 330 306 280 256 257 255 253 250 207 32 358 347 348 349 348 349 348 346 349 351 357 3 17 72 122 128 137 138 134 127 121 110 100 52 244 229 218 220
84 72 39 4 347 352 347 331 295 259 237 255 293 260 71 30 4 351 347 345 346 348 351 350 352 357 8 20 39 77 102 111 122 127 127 123 119 118 127 188 245 241 225 216
348 37 32 17 6 339 346 338 321 302 294 306 293 213 86 24 7 359 353 347 346 350 354 354 356 6 15 29 54 78 91 97 105 114 116 114 116 122 132 202 242 236 227 213
354 27 53 31 21 2 344 346 329 294 285 276 248 96 81 8 2 359 354 350 349 349 355 359 5 16 28 42 59 79 91 96 100 101 101 105 122 142 169 211 230 229 218 201
343 347 42 20 3 27 4 335 313 299 302 286 310 48 4 352 348 348 349 348 348 349 359 5 10 21 36 52 62 66 80 92 96 100 112 122 152 189 205 223 224 214 203 189
336 341 50 47 24 3 360 356 336 307 304 309 330 49 11 343 342 344 347 351 357 357 6 8 18 24 35 47 52 55 59 67 81 95 110 136 176 207 217 220 215 202 190 187
356 328 57 80 63 19 16 357 337 330 345 333 329 41 2 348 353 358 358 2 5 8 15 19 28 30 36 34 29 26 24 27 30 63 154 170 184 204 208 205 202 193 185 186
3 334 320 141 87 22 16 12 5 330 333 360 359 13 359 4 9 8 7 10 16 16 21 25 29 29 31 28 20 10 6 6 11 36 109 129 145 162 171 167 171 188 185 184
336 45 47 59 41 8 16 22 25 29 27 35 24 3 359 2 3 3 5 12 20 24 27 27 29 30 28 27 26 23 23 23 36 56 66 66 65 64 74 84 120 179 200 206
32 92 97 101 94 59 45 32 36 45 37 37 17 16 357 348 351 359 6 16 25 28 30 30 32 32 31 32 35 35 33 34 44 55 53 50 52 49 47 52 46 77 257 252
75 128 138 131 128 58 52 34 32 37 25 17 25 33 348 340 355 10 15 21 27 27 31 34 36 35 33 34 37 40 41 42 47 52 49 46 48 47 44 43 37 41 36 267
146 165 184 125 156 210 61 26 19 30 26 5 7 345 331 342 358 8 9 15 23 26 29 33 36 36 34 35 35 40 43 47 52 54 52 49 52 53 50 53 55 51 52 50
171 167 173 146 196 106 77 62 320 318 27 18 346 333 335 330 328 15 20 13 16 18 21 25 27 31 34 36 39 46 50 51 53 53 52 50 52 55 55 55 54 51 52 53
334 209 185 202 131 123 164 183 237 294 56 16 351 354 352 332 217 67 28 9 3 3 5 11 14 22 32 32 30 43 51 53 52 50 49 50 52 52 52 53 51 49 53 55
102 222 225 208 217 148 135 134 165 245 142 62 351 356 356 351 43 31 1 352 353 354 357 359 5 17 27 27 25 39 48 51 49 46 48 49 48 47 47 47 45 47 52 53
189 184 213 217 216 123 133 144 191 234 85 72 358 354 355 5 2 340 338 346 348 348 349 348 356 12 14 13 20 38 46 49 47 47 48 47 46 45 42 42 40 41 46 46
234 206 199 215 217 162 148 169 211 53 80 56 0 358 351 344 342 346 349 352 352 351 352 348 349 360 6 7 14 40 44 42 46 48 48 46 42 38 37 40 38 36 33 40
226 246 251 239 42 83 168 188 123 55 248 6 356 351 339 336 344 348 350 353 354 351 350 347 343 342 357 15 10 24 40 35 44 50 46 43 49 47 38 37 38 38 34 33
187 197 227 230 209 188 190 197 199 214 256 315 323 327 330 336 342 347 349 350 351 350 349 342 337 338 351 2 0 4 20 14 27 45 41 42 47 56 58 48 44 43 35 32
197 186 214 225 181 181 202 204 198 199 224 258 296 322 335 337 344 346 345 349 348 344 343 338 337 335 333 340 345 352 352 340 17 48 55 54 57 59 66 70 49 43 51 28
193 194 198 207 184 185 183 187 189 195 208 229 281 319 342 342 342 343 345 346 343 341 340 339 339 332 330 336 339 351 334 314 355 45 51 52 59 63 66 85 105 84 52 41